{"data":{"norad_id":47282,"intl_designator":"2020-100AA","name":"ONEWEB-0136","alt_names":[],"object_type":"PAYLOAD","status":"ACTIVE","operator":null,"country":"UK","launch_date":"2020-12-18","launch_site_code":"VOSTO","launch_vehicle":null,"mission":null,"orbit_class":"UNKNOWN","rcs_meters":null,"size_class":null,"mass_kg":null,"dimensions":null,"purposes":["comms"],"wikipedia_slug":null,"has_3d_model":false,"image_url":null,"decayed_at":null,"tle_current":{"epoch":"2026-05-25T02:12:02.981088Z","epoch_age_seconds":63596,"freshness":"FRESH","line1":"1 47282U 20100AA  26145.09170117  .00000087  00000+0  20726-3 0  9994","line2":"2 47282  87.8960 355.2425 0001482  82.9828 277.1469 13.12443582261638","mean_motion":13.12443582,"eccentricity":0.0001482,"inclination_deg":87.896,"raan_deg":355.2425,"arg_perigee_deg":82.9828,"mean_anomaly_deg":277.1469,"bstar":0.00020726,"rev_number":26163,"period_min":109.71900200126,"perigee_km":1212.5959332901,"apogee_km":1214.8461600151,"semimajor_km":7591.8580466526,"source":"CELESTRAK","updated_at":"2026-05-25T13:38:22.384515Z"}}}